Location: Auckland
(36.8670°S, 174.7670°E)
Time: 00:44:08
(UTC+12:00)

Courier 1B Rocket - Pass Details

Date: 28 July 2019
Orbit: 920 x 1202 km, 28.3° (Epoch: 20 August)

Event Time Altitude Azimuth Distance (km) Brightness Sun altitude
Rises 08:20:29 0° 281° (W) 4,035 7.8 9.3°
Reaches altitude 10° 08:25:52 10° 311° (NW) 3,004 7.4 10.2°
Maximum altitude 08:28:02 11° 328° (NNW) 2,864 7.5 10.5°
Drops below altitude 10° 08:30:11 10° 346° (NNW) 2,938 7.8 10.9°
Sets 08:35:16 0° 17° (NNE) 3,807 9.0 11.7°
